Tracking 18951 objects as of 21-Jan-2018
HD Live streaming from Space Station
objects crossing your sky now

CZ-4B DEB

Track CZ-4B DEB now!
10-day predictions


NORAD ID: 35404
Int'l Code: 2002-024J
Perigee: 796.7 km
Apogee: 872.2 km
Inclination: 98.9 °
Period: 101.5 minutes
Semi major axis: 7205 km
RCS: 0.0161 m2 (small)
Launch date: May 15, 2002
Source: People's Republic of China (PRC)
Launch site: Taiyaun Space Center, China (TSC)

Note: This is SATELLITE DEBRIS
aabbcc
Your satellite tracking list
Your tracking list is empty




NASA's NSSDC Master Catalog

Two Line Element Set (TLE):
1 35404U 02024J   18019.73333512 -.00000024 +00000-0 +98237-5 0  9991
2 35404 098.8911 356.6611 0052420 345.2956 138.6421 14.19414053806303
Source of the keplerian elements: AFSPC